Tracking 19562 objects as of 22-Mar-2019
HD Live streaming from Space Station
objects crossing your sky now

TEMISAT

Track TEMISAT now!
10-day predictions
TEMISAT is classified as:


NORAD ID: 22783
Int'l Code: 1993-055B
Perigee: 940.3 km
Apogee: 975.6 km
Inclination: 82.6 °
Period: 104.1 minutes
Semi major axis: 7328 km
RCS: 0.2915 m2 (medium)
Launch date: August 31, 1993
Source: Italy (IT)
Launch site: PLESETSK MISSILE AND SPACE COMPLEX (PKMTR)
aabbcc
Your satellite tracking list
Your tracking list is empty




NASA's NSSDC Master Catalog

Two Line Element Set (TLE):
1 22783U 93055B   19080.93064967 +.00000002 +00000-0 -11381-4 0  9997
2 22783 082.5500 235.6881 0024046 068.1582 292.2132 13.83700434290255
Source of the keplerian elements: AFSPC